SL-8 R/B

Satellite information

Favourite Embed

Satellite Type and Status

ROCKET BODYIN ORBIT

Key statistics

Satellite SL-8 R/B at a glance.

Uptime

9194

Days in orbit

Revolutions

≈ 14.7

Per day

Orbit

SSO

Sun Synchronous Orbit

Inclination

97.8

Latest

Satellite identification and parameters

Extended collection of information and parameters for SL-8 R/B.

Object identification

Identified? True

Debris? False

Object name: SL-8 R/B

International designator: 2000-033D

Object number (NORAD): 26387

Object ID (CCSDS): 26387

Country: COMMONWEALTH OF INDEPENDENT STATES (CIS)

Current information (Y/N): Y

RCS size: LARGE

Orbital parameters

Period: 97.751 minutes

Inclination: 97.8013 deg

SMA: 7029.227 km

Apoapsis: 669.398 km

Periapsis: 632.787 km

RAAN: 219.2226 deg

Eccentricy: 0.00260416

Argument of periapsis: 114.7173 deg

Mean anomaly: 245.675 deg

Mean motion: 14.73131009 rev/day

Mean motion (dot): 0.00001433 rev/day2

B* drag term: 0.00022884321 1/REarth

Two-line elements (TLE)

Creation date: Aug. 30, 2025, 3:38 a.m.

Reference frame: TEME

Reference center: EARTH

Epoch: Aug. 29, 2025, 10:50 p.m. UTC

TLE line 0: 0 SL-8 R/B

TLE line 1: 1 26387U 00033D 25241.95141332 .00001433 00000-0 22884-3 0 9992

TLE line 2: 2 26387 97.8013 219.2226 0026042 114.7173 245.6750 14.73131009605502

Live tracking on map

Real-time ground track for satellite SL-8 R/B.

In-orbit conjunctions

A list of the most updated potential collisions computed for object SL-8 R/B.

Target Orbit TCA Probability of collision Miss distance Type
CZ-6A DEB LEO 2025-06-02 14:34:41 0.0001510231 157.0 (m) DEBRIS
RUBIN 3/SL-8 SSO 2025-03-22 14:03:43 0.0006778454 897.0 (m) PAYLOAD
PICOSAT 5 SSO 2025-01-30 09:07:09 0.0005482334 573.0 (m) PAYLOAD
RUBIN 4/SL-8 SSO 2024-09-02 17:16:07 0.0001330509 313.0 (m) PAYLOAD

Associated space launch

Civilian navigation satellite equivalent to the purely military Parus

SL-8 R/B was lifted into orbit during the mission ‘Kosmos-3M | Nadezhda 9’, on board a Kosmos-3M space rocket.

The launch took place on June 28, 2000, 10:37 a.m. from 132/1 (132L).

For more information about the launch, click the button.

Launch to space Kosmos-3M | Nadezhda 9
Kosmos-3M | Nadezhda 9

Agency: N/A

Status: Launch Successful

Launch date: June 28, 2000, 10:37 a.m. UTC

Rocket: Kosmos-3M

Launch pad: 132/1 (132L)

Location: Plesetsk Cosmodrome, Russian Federation

...

Latest news about this satellite

There are no fresh news available about this satellite. Check back as we update our databases every day.


Newsletter sign-up

Weekly statistics, charts and insights to help you stay on top of the space industry.